Skip Page Navigation
NASA JPL Caltech
NASA Logo - Jet Propulsion Laboratory + View the NASA Portal
+ Center for Near-Earth Object Studies
JPL Home Earth Solar System Stars & Galaxies Technology
JPL Solar System Dynamics
BODIES ORBITS EPHEMERIDES TOOLS PHYSICAL DATA DISCOVERY FAQ SITE MAP
JPL Small-Body Database Browser
Search: [ help ]  
243492 (2009 UB26)
Classification: Main-belt Asteroid          SPK-ID: 2243492
Ephemeris | Orbit Diagram | Orbital Elements | Mission Design | Physical Parameters | Discovery Circumstances ]

[ hide orbit diagram ]

For accurate long-term ephemerides, please instead use our Horizons system.This orbit viewer was implemented using two-body methods, and hence should not be used for determining accurate long-term trajectories (over several years or decades) or planetary encounter circumstances.


Orbital Elements at Epoch 2459200.5 (2020-Dec-17.0) TDB
Reference: JPL 19 (heliocentric ecliptic J2000)
 Element Value Uncertainty (1-sigma)   Units 
e .03457742354179358 5.6816e-08  
a 2.789127494002755 2.4076e-08 au
q 2.692686651330561 1.6288e-07 au
i 6.027605504480773 5.279e-06 deg
node 60.17058053744047 5.7948e-05 deg
peri 273.1525743181649 0.0001005 deg
M 202.267465898992 8.467e-05 deg
tp 2459945.952124755870
(2023-Jan-01.45212476)
0.00040141 TDB
period 1701.378643547692
4.66
2.2029e-05
6.031e-08
d
yr
n .2115931108958396 2.7397e-09 deg/d
Q 2.88556833667495 2.4908e-08 au
  Orbit Determination Parameters
   # obs. used (total)      308  
   data-arc span      10251 days (28.07 yr)  
   first obs. used      1993-03-23  
   last obs. used      2021-04-16  
   planetary ephem.      DE441  
   SB-pert. ephem.      SB441-N16  
   condition code      0  
   norm. resid. RMS      .59665  
   source      ORB  
   producer      Otto Matic  
   solution date      2021-May-04 11:07:32  

Additional Information
 Earth MOID = 1.68878 au 
 Jupiter MOID = 2.23096 au 
 T_jup = 3.321 
[ show covariance matrix ]

Ephemeris | Orbit Diagram | Orbital Elements | Mission Design | Physical Parameters | Discovery Circumstances ]

Physical Parameter Table
Parameter Symbol Value Units Sigma Reference Notes
absolute magnitude H 16.12   n/a MPCxxxxx  
diameter diameter 3.158 km 1.012 urn:nasa:pds:neowise_diameters_albedos::2.0[mainbelt] (http://adsabs.harvard.edu/abs/2011ApJ...741...68M)  
geometric albedo albedo 0.071   0.045 urn:nasa:pds:neowise_diameters_albedos::2.0[mainbelt] (http://adsabs.harvard.edu/abs/2011ApJ...741...68M)  

243492 (2009 UB26)          Discovered 2009-Oct-21 by CSS at Catalina
Reference: 20100626/Numbers.arcLast Updated: 2010-06-28

Alternate Designations
 2009 UB26 = 2007 EW107 
Ephemeris | Orbit Diagram | Orbital Elements | Mission Design | Physical Parameters | Discovery Circumstances ]
ABOUT SSD CREDITS/AWARDS PRIVACY/COPYRIGHT GLOSSARY LINKS
FirstGov 2021-May-09 15:08 UT
(server date/time)  
NASA Home Page
Site Manager:   Ryan S. Park
Webmaster  Alan B. Chamberlin